#timestamp,LO_Frequency,Hit,StdDev 
1508846415.2,286047002.6,N
1508846435.1,286047000.1,N
1508846436.0,286047000.1,N
1508846455.8,286047004.1,Y
1508846475.7,286047000.3,P
1508846495.5,286047001.6,N
1508846515.3,286046998.9,N
1508846535.2,286047000.7,N
1508846555.9,286047004.3,Y
1508846575.7,286047001.7,P
1508846595.6,286047005.3,P
1508846615.4,286047004.1,N
1508846635.2,286047005.0,N
1508846655.1,286047003.6,N
1508846656.0,286047003.6,N
1508846675.8,286047000.4,N
1508846695.6,286047000.2,N
1508846715.5,286046996.7,N
1508846735.3,286047000.3,N
1508846755.1,286046999.6,N
1508846775.9,286046997.3,N
1508846795.7,286046995.0,N
1508846815.5,286046996.5,N
1508846835.4,286046997.2,N
1508846855.2,286046995.5,N
1508846875.0,286046996.7,N
1508846875.9,286046996.7,N
1508846895.8,286046997.9,N
1508846915.6,286046997.0,N
1508846935.4,286047000.5,N
1508846955.3,286046999.0,N
1508846975.1,286047000.1,N
1508846995.8,286047001.9,N
1508847015.7,286047002.5,N
1508847035.5,286046999.8,N
1508847055.3,286047000.6,N
1508847075.2,286047001.9,N
1508847095.0,286047003.5,N
1508847095.9,286047003.5,N
1508847115.8,286047001.7,N
1508847135.6,286047002.3,N
1508847155.4,286047000.3,N
1508847175.3,286047002.7,N
1508847195.1,286047006.8,N
1508847196.0,286047006.8,N
1508847215.8,286047002.9,N
1508847235.7,286047003.7,N
1508847255.5,286047003.1,N
1508847275.3,286047005.3,N
1508847295.2,286047007.6,N
1508847315.0,286047004.7,N
1508847315.9,286047004.7,N
1508847335.7,286047003.6,N
1508847355.6,286047005.2,N
1508847375.4,286047002.6,N
1508847395.2,286046998.9,N
1508847415.1,286046999.3,N
1508847416.0,286046999.3,N
1508847435.8,286047001.0,N
1508847455.7,286047000.3,N
1508847475.5,286047000.8,N
1508847495.3,286046999.3,N
1508847515.2,286047000.5,N
1508847535.9,286046998.4,N
1508847555.7,286046999.9,N
1508847575.6,286047002.6,N
1508847595.4,286047002.1,N
1508847615.2,286047002.2,N
1508847635.1,286047003.4,N
1508847636.0,286047003.4,N
1508847655.8,286047005.6,N
1508847675.6,286047005.8,N
1508847695.5,286047004.4,N
1508847715.3,286046999.1,N
1508847735.1,286047002.3,N
1508847755.9,286047002.0,N
1508847775.7,286047003.8,N
1508847795.5,286047003.3,N
1508847815.4,286047005.5,N
1508847835.2,286047000.0,N
1508847855.0,286046997.8,N
1508847855.9,286046997.8,N
1508847875.8,286046998.4,N
1508847895.6,286046994.9,N
1508847915.4,286046995.1,N
1508847935.3,286046999.3,N
1508847955.1,286046995.4,N
1508847975.9,286046998.9,N
1508847995.7,286047000.7,N
1508848015.5,286047006.0,N
1508848035.4,286046999.9,N
1508848055.2,286046999.7,N
1508848075.0,286047005.8,N
1508848075.9,286047005.8,N
1508848095.8,286047002.1,N
1508848115.6,286047001.1,N
1508848135.4,286047004.1,N
1508848155.3,286047003.2,N
1508848175.1,286047005.4,N
1508848176.0,286047005.4,N
1508848195.8,286047003.0,N
1508848215.7,286047000.9,N
1508848235.5,286047002.6,N
1508848255.3,286046998.8,N
1508848275.2,286046991.8,N
1508848295.9,286046994.0,N
1508848315.7,286046994.1,N
1508848335.6,286046994.5,N
1508848355.4,286046992.6,N
1508848375.2,286046995.4,N
1508848395.1,286047001.6,N
1508848396.0,286047001.6,N
1508848415.8,286046996.9,N
1508848435.6,286046997.3,N
1508848455.5,286046997.4,N
1508848475.3,286046993.5,N
1508848495.1,286047002.2,N
1508848515.9,286046998.8,N
1508848535.7,286046995.2,N
1508848555.5,286047000.8,N
1508848575.4,286046998.1,N
1508848595.2,286046995.3,N
1508848615.0,286046995.3,N
1508848615.9,286046995.3,N
1508848635.8,286046998.3,N
1508848655.6,286046997.5,N
1508848675.4,286046993.3,N
1508848695.3,286046997.4,N
1508848715.1,286046999.3,N
1508848735.9,286046995.6,N
1508848755.7,286046995.5,N
1508848775.5,286046997.4,N
1508848795.4,286046995.3,N
1508848815.2,286046997.3,N
1508848835.0,286046999.3,N
1508848835.9,286046999.3,N
1508848855.8,286046998.7,N
1508848875.6,286047001.2,N
1508848895.4,286047005.6,N
1508848915.3,286047002.4,N
1508848935.1,286046996.5,N
1508848936.0,286046996.5,N
1508848955.8,286047000.3,N
1508848975.7,286046999.9,N
1508848995.5,286047002.1,N
1508849015.3,286047002.6,N
1508849035.2,286046999.6,N
1508849055.9,286046997.9,N
1508849075.7,286046994.9,N
1508849095.6,286046998.6,N
1508849115.4,286046994.2,N
1508849135.2,286046995.4,N
1508849155.1,286046999.5,N
1508849156.0,286046999.5,N
1508849175.8,286047000.9,N
1508849195.6,286047000.3,N
1508849215.5,286047004.4,N
1508849235.3,286047000.0,N
1508849255.1,286047002.5,N
1508849275.9,286047001.0,N
1508849295.7,286046998.3,N
1508849315.6,286047000.5,N
1508849335.4,286047000.5,N
1508849355.2,286046998.1,N
1508849375.1,286047001.6,N
1508849376.0,286047001.6,N
1508849395.8,286046997.9,N
1508849415.6,286046998.5,N
1508849435.5,286046995.1,N
1508849455.3,286046999.1,N
1508849475.1,286047002.0,N
1508849495.9,286047002.1,N
1508849515.7,286047002.6,N
1508849535.5,286046999.0,N
1508849555.4,286046997.1,N
1508849575.2,286046998.6,N
1508849595.0,286047002.8,N
1508849595.9,286047002.8,N
1508849615.8,286047001.9,N
1508849635.6,286047001.9,N
1508849655.4,286047000.1,N
1508849675.3,286047002.7,N
1508849695.1,286047000.1,N
1508849715.8,286046996.7,N
1508849735.7,286046998.1,N
1508849755.5,286047005.4,N
1508849775.3,286047002.4,N
1508849795.2,286047000.0,N
1508849815.0,286047002.3,N
1508849815.9,286047002.3,N
1508849835.7,286047004.0,N
1508849855.6,286047002.6,N
1508849875.4,286046999.8,N
1508849895.2,286047002.3,N
1508849915.1,286047003.2,N
1508849916.0,286047003.2,N
1508849935.8,286047003.0,N
1508849955.7,286047002.2,N
1508849975.5,286047002.8,N
1508849995.3,286047004.3,N
